AAL2710 KCLT-KRSW

Flight info

Callsign AAL2710
Flight time N/A
Altitude 36000
Route ICONS5 NOOKS DCT RIELE Q103 CYNTA SHFTY6
Aircraft A321/M-SDE3FGHIRWY/LB1

Departure

Time N/A
Airport Charlotte Douglas International Airport (KCLT)

Arrival

Time 2026-05-05 04:39
Airport Southwest Florida International Airport (KRSW)
Time Latitude Longitude Altitude Speed Heading
2026-05-05 04:27 26.56435 -81.71315 1960 ft 239 kts 55°
2026-05-05 04:27 26.57403 -81.69830 2241 ft 226 kts 66°
2026-05-05 04:27 26.57677 -81.68145 2302 ft 225 kts 99°
2026-05-05 04:27 26.57077 -81.66559 2311 ft 225 kts 127°
2026-05-05 04:28 26.55990 -81.65292 2307 ft 228 kts 144°
2026-05-05 04:28 26.54483 -81.64729 2309 ft 236 kts 176°
2026-05-05 04:28 26.52903 -81.65150 2309 ft 244 kts 207°
2026-05-05 04:28 26.51641 -81.66451 2317 ft 251 kts 229°
2026-05-05 04:29 26.50615 -81.68033 2306 ft 252 kts 233°
2026-05-05 04:29 26.49635 -81.69639 2476 ft 250 kts 234°
2026-05-05 04:29 26.48651 -81.71277 2729 ft 250 kts 233°
2026-05-05 04:29 26.47691 -81.72897 2931 ft 251 kts 233°
2026-05-05 04:30 26.46741 -81.74494 3001 ft 250 kts 233°
2026-05-05 04:30 26.45772 -81.76105 3008 ft 249 kts 233°
2026-05-05 04:30 26.44807 -81.77715 3007 ft 250 kts 233°
2026-05-05 04:30 26.43834 -81.79330 3008 ft 251 kts 233°
2026-05-05 04:31 26.42864 -81.80945 3007 ft 251 kts 233°
2026-05-05 04:31 26.41899 -81.82556 3007 ft 248 kts 233°
2026-05-05 04:31 26.40935 -81.84162 3004 ft 249 kts 233°
2026-05-05 04:31 26.39975 -81.85770 3000 ft 250 kts 233°
2026-05-05 04:32 26.39015 -81.87394 3000 ft 250 kts 233°
2026-05-05 04:32 26.38072 -81.89026 2993 ft 251 kts 239°
2026-05-05 04:32 26.37672 -81.90849 2988 ft 238 kts 272°
2026-05-05 04:32 26.38164 -81.92511 2995 ft 220 kts 307°
2026-05-05 04:33 26.39215 -81.93683 2996 ft 210 kts 321°
2026-05-05 04:33 26.40341 -81.94689 2990 ft 206 kts 327°
2026-05-05 04:33 26.41176 -81.95144 2969 ft 200 kts 355°
2026-05-05 04:33 26.42457 -81.94840 2990 ft 187 kts 44°
2026-05-05 04:34 26.43051 -81.93638 3000 ft 179 kts 88°
2026-05-05 04:34 26.43132 -81.92252 3008 ft 180 kts 78°
2026-05-05 04:34 26.43651 -81.90991 2949 ft 175 kts 63°
2026-05-05 04:34 26.44294 -81.89876 2743 ft 167 kts 60°
2026-05-05 04:35 26.44949 -81.88833 2547 ft 161 kts 58°
2026-05-05 04:35 26.45584 -81.87847 2351 ft 153 kts 59°
2026-05-05 04:35 26.46184 -81.86923 2175 ft 143 kts 60°
2026-05-05 04:35 26.46757 -81.86043 1987 ft 138 kts 59°
2026-05-05 04:36 26.47317 -81.85182 1810 ft 137 kts 59°
2026-05-05 04:36 26.47878 -81.84322 1627 ft 137 kts 59°
2026-05-05 04:36 26.48434 -81.83468 1445 ft 136 kts 59°
2026-05-05 04:36 26.48992 -81.82612 1264 ft 136 kts 59°
2026-05-05 04:37 26.49547 -81.81761 1087 ft 136 kts 57°
2026-05-05 04:37 26.50103 -81.80909 912 ft 136 kts 58°
2026-05-05 04:37 26.50660 -81.80054 743 ft 135 kts 57°
2026-05-05 04:37 26.51215 -81.79199 609 ft 136 kts 58°
2026-05-05 04:38 26.51776 -81.78348 381 ft 135 kts 54°
2026-05-05 04:38 26.52345 -81.77501 224 ft 138 kts 58°
2026-05-05 04:38 26.52887 -81.76637 60 ft 131 kts 56°
2026-05-05 04:38 26.53342 -81.75926 45 ft 90 kts 53°
2026-05-05 04:39 26.53609 -81.75520 43 ft 44 kts 53°
2026-05-05 04:39 26.53767 -81.75284 41 ft 31 kts 58°
2026-05-05 04:39 26.53760 -81.75157 44 ft 15 kts 152°
2026-05-05 04:39 26.53682 -81.75203 44 ft 12 kts 232°
2026-05-05 04:40 26.53627 -81.75284 44 ft 14 kts 233°
2026-05-05 04:40 26.53566 -81.75375 44 ft 15 kts 234°
2026-05-05 04:40 26.53503 -81.75476 44 ft 16 kts 236°
2026-05-05 04:40 26.53438 -81.75584 44 ft 17 kts 236°
2026-05-05 04:41 26.53368 -81.75699 45 ft 18 kts 236°
2026-05-05 04:41 26.53317 -81.75780 45 ft 13 kts 234°
2026-05-05 04:41 26.53285 -81.75828 44 ft 3 kts 232°